TimeEST,TemperatureF,Dew PointF,Humidity,Sea Level PressureIn,VisibilityMPH,Wind Direction,Wind SpeedMPH,Gust SpeedMPH,PrecipitationIn,Events,Conditions,WindDirDegrees,DateUTC
12:52 AM,24.1,21.0,88,30.28,10.0,Calm,Calm,-,N/A,,Overcast,0,2013-02-23 05:52:00
1:52 AM,24.1,19.0,81,30.25,10.0,Calm,Calm,-,N/A,,Overcast,0,2013-02-23 06:52:00
2:52 AM,26.1,19.9,78,30.23,10.0,Calm,Calm,-,N/A,,Overcast,0,2013-02-23 07:52:00
3:52 AM,30.9,18.0,59,30.22,10.0,South,6.9,-,N/A,,Overcast,180,2013-02-23 08:52:00
4:52 AM,30.9,18.0,59,30.21,10.0,South,8.1,-,N/A,,Overcast,170,2013-02-23 09:52:00
5:52 AM,30.0,19.0,64,30.22,10.0,South,9.2,-,N/A,,Overcast,180,2013-02-23 10:52:00
6:52 AM,30.0,19.9,66,30.19,10.0,SSE,6.9,-,N/A,,Overcast,160,2013-02-23 11:52:00
7:52 AM,32.0,21.0,64,30.17,10.0,SSE,9.2,18.4,N/A,,Overcast,160,2013-02-23 12:52:00
8:52 AM,32.0,21.9,66,30.18,10.0,South,9.2,17.3,0.01,,Overcast,170,2013-02-23 13:52:00
9:52 AM,33.1,23.0,66,30.17,10.0,South,13.8,19.6,N/A,,Overcast,170,2013-02-23 14:52:00
10:52 AM,33.1,23.0,66,30.14,10.0,SSE,11.5,21.9,N/A,,Overcast,150,2013-02-23 15:52:00
11:43 AM,33.8,23.0,65,30.09,10.0,South,8.1,19.6,N/A,,Overcast,180,2013-02-23 16:43:00
11:52 AM,33.1,24.1,70,30.13,10.0,SSE,8.1,-,N/A,,Overcast,150,2013-02-23 16:52:00
12:36 PM,33.8,24.8,70,30.06,10.0,SSE,10.4,-,N/A,,Overcast,160,2013-02-23 17:36:00
12:52 PM,34.0,24.1,67,30.09,10.0,Variable,6.9,-,N/A,,Overcast,0,2013-02-23 17:52:00
1:30 PM,35.6,24.8,65,30.03,10.0,SSE,10.4,-,N/A,,Overcast,160,2013-02-23 18:30:00
1:39 PM,35.6,24.8,65,30.03,10.0,South,9.2,-,N/A,,Overcast,170,2013-02-23 18:39:00
1:52 PM,35.1,24.1,64,30.07,10.0,South,10.4,18.4,N/A,,Overcast,180,2013-02-23 18:52:00
2:52 PM,35.1,23.0,61,30.06,10.0,South,15.0,24.2,N/A,,Overcast,170,2013-02-23 19:52:00
3:52 PM,34.0,23.0,64,30.04,9.0,Variable,5.8,-,0.00,Snow,Light Snow,0,2013-02-23 20:52:00
4:40 PM,33.8,24.8,70,30.00,2.5,South,11.5,24.2,0.00,Snow,Light Snow,170,2013-02-23 21:40:00
4:52 PM,33.1,26.1,75,30.04,2.0,SSE,5.8,17.3,0.00,Snow,Light Snow,160,2013-02-23 21:52:00
5:03 PM,33.8,24.8,70,29.99,5.0,South,9.2,17.3,0.00,Snow,Light Snow,180,2013-02-23 22:03:00
5:52 PM,33.1,25.0,72,30.01,7.0,South,6.9,-,0.00,Snow,Light Snow,180,2013-02-23 22:52:00
6:02 PM,33.8,24.8,70,29.97,9.0,South,9.2,-,0.00,,Overcast,180,2013-02-23 23:02:00
6:52 PM,34.0,25.0,70,30.01,8.0,South,11.5,20.7,0.00,Snow,Light Snow,180,2013-02-23 23:52:00
7:20 PM,33.8,26.6,75,29.96,4.0,South,12.7,20.7,0.00,Snow,Light Snow,170,2013-02-24 00:20:00
7:35 PM,33.8,24.8,70,29.96,8.0,South,10.4,19.6,0.00,Snow,Light Snow,190,2013-02-24 00:35:00
7:52 PM,35.1,24.1,64,29.99,10.0,South,10.4,19.6,0.00,,Overcast,190,2013-02-24 00:52:00
8:45 PM,33.8,26.6,75,29.95,3.0,South,9.2,17.3,0.00,Snow,Light Snow,190,2013-02-24 01:45:00
8:52 PM,34.0,26.1,73,29.99,3.0,South,8.1,17.3,0.00,Snow,Light Snow,190,2013-02-24 01:52:00
9:14 PM,33.8,26.6,75,29.95,2.0,South,8.1,18.4,0.01,Snow,Light Snow,180,2013-02-24 02:14:00
9:23 PM,32.0,28.4,87,29.95,1.5,South,11.5,-,0.01,Snow,Light Snow,180,2013-02-24 02:23:00
9:46 PM,32.0,28.4,87,29.93,2.5,SSW,6.9,-,0.02,Snow,Light Snow,200,2013-02-24 02:46:00
9:47 PM,32.0,28.0,85,29.97,2.5,SSW,6.9,-,0.02,Snow,Light Snow,210,2013-02-24 02:47:00
9:56 PM,33.8,26.6,75,29.93,6.0,South,8.1,-,0.00,Snow,Light Snow,190,2013-02-24 02:56:00
10:17 PM,33.8,26.6,75,29.92,9.0,South,9.2,18.4,0.00,Snow,Light Snow,170,2013-02-24 03:17:00
10:25 PM,33.8,26.6,75,29.91,5.0,Variable,5.8,-,0.00,Snow,Light Snow,0,2013-02-24 03:25:00
10:38 PM,32.0,28.4,87,29.90,5.0,Variable,3.5,-,0.00,Snow,Light Snow,0,2013-02-24 03:38:00
10:52 PM,33.1,27.0,78,29.94,10.0,Variable,5.8,-,0.00,Rain,Light Rain,0,2013-02-24 03:52:00
11:52 PM,34.0,26.1,73,29.92,10.0,NNE,3.5,-,0.00,,Overcast,20,2013-02-24 04:52:00